FW5913 Weather Reports


time (UTC)temp
C
wind
direction
speed
KPH
gust
KPH
rain 1hr
cm
rain 24hr
cm
rain mn
cm
humidity
%
barometer
mb
20260507081308 7 346 8.0 12.9 0.13 0.30 0.28 97 1012.6
20260507080246 7 345 8.0 12.9 0.10 0.28 0.25 97 1012.5
20260507075244 7 320 8.0 11.3 0.10 0.28 0.25 97 1012.3
20260507074303 7 330 8.0 12.9 0.10 0.25 0.23 97 1012.2
20260507073241 7 316 6.4 8.0 0.08 0.23 0.20 97 1012.1
20260507072300 7 299 4.8 11.3 0.08 0.20 0.18 97 1012.0
20260507071238 7 301 8.0 12.9 0.08 0.18 0.15 96 1011.8
20260507070236 7 301 8.0 12.9 0.05 0.15 0.15 96 1011.7
20260507065234 7 300 4.8 12.9 0.05 0.15 0.15 96 1011.7
20260507064233 7 271 4.8 8.0 0.05 0.15 0.15 97 1011.6
20260507063232 7 305 4.8 8.0 0.03 0.15 0.13 97 1011.4
20260507062228 7 314 4.8 12.9 0.03 0.13 0.10 97 1011.2
20260507061307 7 301 3.2 4.8 0.00 0.15 0.10 97 1011.1
20260507060225 7 303 6.4 9.7 0.00 0.20 0.10 97 1011.0
20260507055224 7 301 4.8 6.4 0.00 0.23 0.10 97 1010.9
20260507054242 7 293 6.4 9.7 0.00 0.25 0.10 97 1010.8
20260507053220 7 293 6.4 9.7 0.00 0.28 0.10 97 1010.7
20260507052259 7 286 8.0 12.9 0.00 0.28 0.10 97 1010.6
20260507051217 7 318 3.2 4.8 0.00 0.30 0.10 98 1010.5
20260507050215 7 305 4.8 6.4 0.00 0.36 0.10 97 1010.5
20260507045213 7 338 6.4 9.7 0.00 0.38 0.10 98 1010.4
20260507044212 7 298 6.4 9.7 0.00 0.41 0.10 97 1010.4
20260507043211 7 289 3.2 6.4 0.00 0.41 0.10 98 1010.3
20260507042209 7 297 8.0 12.9 0.00 0.43 0.10 98 1010.2
20260507040206 7 313 8.0 14.5 0.00 0.46 0.10 98 1010.1
20260507035205 7 321 3.2 6.4 0.00 0.46 0.10 98 1010.0
20260507034204 7 294 6.4 12.9 0.00 0.46 0.10 97 1010.0
20260507033243 7 296 6.4 9.7 0.00 0.46 0.10 98 1010.1
20260507032202 7 274 3.2 6.4 0.00 0.46 0.10 98 1010.1
20260507031301 7 318 6.4 9.7 0.00 0.46 0.10 97 1010.1
20260507030259 7 293 8.0 11.3 0.00 0.46 0.10 97 1009.9
20260507025257 7 299 6.4 14.5 0.00 0.46 0.10 97 1009.8
20260507024255 7 318 3.2 4.8 0.00 0.46 0.10 97 1009.9
20260507023254 7 316 4.8 8.0 0.00 0.46 0.10 97 1009.9
20260507022252 7 308 6.4 9.7 0.00 0.48 0.10 97 1010.0
20260507021311 7 305 6.4 9.7 0.00 0.48 0.10 97 1009.9
20260507020330 7 325 6.4 6.4 0.00 0.48 0.10 97 1009.8
20260507015248 7 292 6.4 8.0 0.00 0.48 0.10 96 1009.7
20260507014246 7 251 3.2 6.4 0.00 0.51 0.10 96 1009.7
20260507013244 7 325 3.2 9.7 0.00 0.58 0.10 96 1009.7
20260507012242 7 336 1.6 4.8 0.00 0.66 0.10 97 1009.7
20260507011401 7 326 4.8 6.4 0.00 0.71 0.10 96 1009.6
20260507010239 7 334 6.4 9.7 0.00 0.79 0.10 97 1009.6
20260507005237 7 329 3.2 6.4 0.03 0.84 0.10 97 1009.5
20260507004256 7 292 4.8 8.0 0.08 0.89 0.10 97 1009.5
20260507003233 7 339 6.4 8.0 0.08 0.94 0.10 96 1009.5
20260507002228 7 289 4.8 9.7 0.08 1.02 0.10 97 1009.5
20260507001223 8 322 4.8 9.7 0.08 1.09 0.10 97 1009.6
20260507000222 8 291 3.2 4.8 0.08 1.14 0.08 97 1009.7
20260506235220 8 344 3.2 4.8 0.05 1.19 0.05 97 1009.6
20260506234218 8 333 4.8 8.0 0.03 1.22 0.03 97 1009.5
20260506233217 8 275 6.4 12.9 0.00 1.27 0.00 97 1009.4
20260506232213 8 322 6.4 11.3 0.00 1.27 0.00 97 1009.4
20260506231211 8 319 3.2 6.4 0.00 1.30 0.00 97 1009.3
20260506230210 8 327 3.2 4.8 0.00 1.35 0.00 97 1009.2
20260506225208 8 285 3.2 6.4 0.00 1.37 0.00 98 1009.2
20260506224207 8 291 3.2 6.4 0.00 1.40 0.00 98 1009.1
20260506223206 8 329 4.8 6.4 0.00 1.45 0.00 98 1009.0
20260506222205 8 285 6.4 8.0 0.00 1.47 0.00 98 1009.0
20260506221203 8 323 6.4 8.0 0.00 1.50 0.00 97 1008.9
20260506220202 8 341 4.8 8.0 0.00 1.55 0.00 97 1009.0
20260506215411 8 328 3.2 4.8 0.00 1.57 1.55 97 1009.0
20260506214429 8 327 4.8 6.4 0.00 1.63 1.55 97 1009.0
20260506213407 8 333 4.8 6.4 0.00 1.68 1.55 97 1009.0
20260506212406 8 292 6.4 11.3 0.00 1.73 1.55 97 1009.0
20260506211405 8 288 6.4 8.0 0.00 1.80 1.55 97 1008.9
20260506210404 8 285 3.2 6.4 0.00 1.88 1.55 97 1008.9
20260506205403 8 330 4.8 9.7 0.00 1.96 1.55 97 1008.8
20260506204402 8 327 4.8 8.0 0.00 2.01 1.55 97 1008.8
20260506203520 8 322 3.2 6.4 0.00 2.06 1.55 97 1008.7
20260506202459 8 322 6.4 9.7 0.00 2.11 1.55 97 1008.7
20260506201457 9 336 4.8 8.0 0.00 2.16 1.55 97 1008.6
20260506200456 9 312 3.2 8.0 0.00 2.21 1.55 97 1008.4
20260506195514 9 332 3.2 6.4 0.00 2.26 1.55 97 1008.4
20260506194453 9 320 4.8 8.0 0.00 2.31 1.55 97 1008.5
20260506193510 9 308 3.2 4.8 0.00 2.36 1.55 96 1008.3
20260506192448 9 337 4.8 9.7 0.00 2.41 1.55 96 1008.2
20260506191447 9 332 6.4 11.3 0.00 2.46 1.55 95 1008.1
20260506190445 10 339 6.4 11.3 0.00 2.46 1.52 95 1007.9
20260506185443 10 357 4.8 9.7 0.00 2.46 1.52 94 1007.8
20260506184441 10 348 6.4 9.7 0.00 2.49 1.52 94 1007.7
20260506183437 10 320 6.4 12.9 0.00 2.49 1.52 94 1007.5
20260506182435 10 290 4.8 9.7 0.00 2.49 1.52 93 1007.3
20260506181434 10 308 3.2 6.4 0.00 2.49 1.52 93 1007.1
20260506180433 10 304 4.8 9.7 0.00 2.49 1.52 93 1007.2
20260506175431 10 307 6.4 9.7 0.00 2.51 1.52 93 1007.1
20260506174429 10 297 6.4 9.7 0.00 2.51 1.52 93 1007.1
20260506173427 10 318 3.2 6.4 0.00 2.51 1.52 93 1007.0
20260506172423 10 332 4.8 9.7 0.00 2.51 1.52 93 1007.0
20260506171441 10 295 6.4 9.7 0.00 2.51 1.52 93 1007.0
20260506170420 11 326 6.4 6.4 0.00 2.51 1.52 92 1006.9
20260506165417 11 291 6.4 12.9 0.00 2.51 1.52 92 1006.8
20260506164415 11 295 6.4 9.7 0.00 2.51 1.52 91 1006.8
20260506163434 11 308 6.4 9.7 0.00 2.51 1.52 90 1006.7
20260506162412 11 307 6.4 9.7 0.00 2.51 1.52 90 1006.6
20260506161410 12 308 4.8 11.3 0.00 2.51 1.52 90 1006.6
20260506160429 12 292 6.4 11.3 0.00 2.51 1.52 89 1006.6
20260506155427 12 306 6.4 8.0 0.00 2.51 1.52 89 1006.7
20260506154407 12 301 6.4 8.0 0.00 2.51 1.52 87 1006.6
20260506153406 12 316 4.8 9.7 0.00 2.57 1.52 86 1006.6
20260506152404 13 316 4.8 9.7 0.00 2.62 1.52 86 1006.6
20260506151402 12 300 4.8 6.4 0.00 2.69 1.52 87 1006.6
20260506150401 12 323 6.4 8.0 0.00 2.69 1.52 87 1006.7
20260506145520 13 320 3.2 6.4 0.00 2.69 1.52 87 1006.6
20260506144459 12 331 4.8 9.7 0.00 2.69 1.52 89 1006.6
20260506143457 13 307 4.8 6.4 0.00 2.69 1.52 86 1006.5
20260506142455 13 301 4.8 9.7 0.00 2.69 1.52 85 1006.5
20260506141453 14 7 4.8 6.4 0.00 2.69 1.52 84 1006.6
20260506140451 13 327 4.8 6.4 0.00 2.69 1.52 85 1006.5
20260506135450 13 304 6.4 8.0 0.00 2.69 1.52 85 1006.6
20260506134449 13 313 4.8 8.0 0.00 2.69 1.52 86 1006.6
20260506133447 13 306 6.4 11.3 0.00 2.69 1.52 87 1006.6
20260506132446 13 328 4.8 6.4 0.00 2.87 1.52 85 1006.7
20260506131443 13 292 4.8 6.4 0.00 3.02 1.52 84 1006.6
20260506130442 14 313 6.4 12.9 0.00 3.07 1.52 85 1006.6
20260506125441 14 303 3.2 9.7 0.00 3.12 1.52 84 1006.5
20260506124439 15 352 9.7 17.7 0.00 3.12 1.52 84 1006.4
20260506123436 14 13 8.0 9.7 0.00 3.12 1.52 85 1006.4
20260506122434 14 328 6.4 12.9 0.00 3.12 1.52 85 1006.4
20260506121433 15 330 9.7 14.5 0.00 3.12 1.52 79 1006.5
20260506120430 15 112 4.8 8.0 0.00 3.17 1.52 78 1006.5
20260506115448 15 103 4.8 9.7 0.00 3.20 1.52 79 1006.4
20260506114425 15 157 1.6 6.4 0.00 3.20 1.52 80 1006.4
20260506113423 14 95 8.0 12.9 0.00 3.20 1.52 79 1006.4
20260506112421 14 111 9.7 14.5 0.00 3.20 1.52 80 1006.4
20260506111418 14 136 6.4 14.5 0.00 3.20 1.52 79 1006.4
20260506110415 13 175 4.8 8.0 0.00 3.20 1.52 82 1006.4
20260506105434 14 91 11.3 14.5 0.00 3.20 1.52 83 1006.4
20260506104412 14 118 6.4 8.0 0.00 3.20 1.52 83 1006.4
20260506103430 14 110 8.0 14.5 0.00 3.20 1.52 84 1006.4
20260506102408 13 147 11.3 16.1 0.00 3.20 1.52 87 1006.3
20260506101407 13 109 9.7 11.3 0.00 3.20 1.52 87 1006.4
20260506100446 13 113 11.3 16.1 0.00 3.20 1.52 88 1006.3
20260506095405 13 134 6.4 17.7 0.00 3.20 1.52 88 1006.2
20260506094403 13 124 8.0 17.7 0.00 3.20 1.52 88 1006.1
20260506093402 13 118 9.7 16.1 0.00 3.20 1.52 88 1006.1
20260506092401 13 110 9.7 12.9 0.00 3.20 1.52 88 1006.0
20260506091359 13 109 6.4 9.7 0.00 3.20 1.52 85 1006.1
20260506090357 14 123 1.6 3.2 0.00 3.20 1.52 84 1006.0
20260506085355 13 129 9.7 14.5 0.00 3.20 1.52 85 1005.9
20260506084354 13 132 6.4 12.9 0.00 3.20 1.52 86 1005.9
20260506083352 13 110 8.0 11.3 0.00 3.20 1.52 87 1005.8
20260506082351 13 113 3.2 6.4 0.00 3.20 1.52 88 1005.8